Location: River House Observatory
(37.8577°N, 76.3548°W)
Time: 03:34:08
(UTC-04:00)

Daily predictions for brighter satellites

Satellite Brightness Start Highest point End
(mag) Time Altitude Azimuth Time Altitude Azimuth Time Altitude Azimuth
Cosmos 2219 Rocket 3.8 00:14:24 30° NNW 00:14:24 30° NNW 00:17:59 10° N
ATLAS 3B R/B 4.3 00:07:51 10° WNW 00:11:07 22° W 00:11:07 22° W
SL-16 R/B 4.4 00:21:37 18° NE 00:21:37 18° NE 00:23:00 10° NNE
Cosmos 2333 Rocket 4.0 00:32:48 26° NNW 00:32:48 26° NNW 00:36:07 10° N
Cosmos 2237 Rocket 4.2 00:57:08 23° NNW 00:57:08 23° NNW 01:00:01 10° N
Cosmos 2369 Rocket 4.5 00:56:59 10° N 00:59:57 17° NE 00:59:57 17° NE
CENTAUR R/B 3.5 00:58:32 10° NNW 01:04:37 58° NNW 01:04:37 58° NNW
USA 215 4.1 01:13:10 44° N 01:13:10 44° N 01:17:58 10° NW
SL-16 R/B 4.4 02:03:29 19° NNW 02:03:29 19° NNW 02:06:07 10° N
SL-16 R/B 3.8 02:30:31 31° E 02:31:34 33° ENE 02:37:01 10° N
Cosmos 1943 Rocket 3.6 02:28:02 10° NNW 02:31:11 33° N 02:31:11 33° N
Resurs 1-4 Rocket 3.8 02:35:04 10° NE 02:38:22 26° ENE 02:38:22 26° ENE
Cosmos 2369 Rocket 4.0 02:39:41 10° NNW 02:41:41 23° NNW 02:41:41 23° NNW
CZ-3A R/B 3.8 02:38:34 10° NW 02:48:09 60° NE 02:53:25 10° ESE
CZ-2D R/B 3.5 02:45:06 10° NNE 02:48:55 33° ENE 02:48:55 33° ENE
ARIANE 5 R/B 3.4 03:07:50 10° NNE 03:12:11 46° ENE 03:12:11 46° ENE
BREEZE-M DEB (TANK) 4.4 03:13:14 39° NW 03:14:44 47° N 03:31:31 10° ENE
ADEOS Rocket 3.6 03:17:48 10° N 03:21:45 40° NNW 03:21:45 40° NNW
Cosmos 1726 4.5 03:29:16 22° ENE 03:29:16 22° ENE 03:31:18 10° NE
IRS-1D 3.7 03:32:06 10° N 03:36:35 67° N 03:36:35 67° N
Cosmos 2221 3.6 03:41:00 40° N 03:41:00 40° N 03:43:49 10° N
Cosmos 1805 Rocket 4.3 03:38:30 10° N 03:42:20 52° NE 03:42:20 52° NE
ADEOS 3.5 03:40:11 10° NNE 03:45:16 85° NE 03:45:16 85° NE
Spot 4 Rocket 4.2 03:40:38 10° N 03:45:08 60° NW 03:45:08 60° NW
COSMOS 2406 3.0 03:47:05 86° SSW 03:47:14 90° NW 03:52:57 10° NNE
Cosmos 2285 Rocket 4.0 03:46:52 62° S 03:47:58 78° ESE 03:54:22 10° NNE
Cosmos 372 Rocket 4.0 03:46:25 10° NNW 03:51:00 69° NW 03:51:00 69° NW
Cosmos 2098 Rocket 4.2 03:52:13 48° WNW 03:52:13 48° WNW 03:56:49 10° N
Cosmos 540 Rocket 4.2 03:58:15 39° NW 03:58:15 39° NW 04:02:28 10° N
Okean O Rocket 4.3 03:57:21 10° ENE 03:59:41 14° E 04:01:58 10° SE
Cosmos 783 Rocket 4.5 04:05:05 64° W 04:05:16 64° WNW 04:10:30 10° NNE
MOS 1 Rocket 3.9 04:04:00 10° N 04:07:19 40° NW 04:07:19 40° NW
Cosmos 1300 2.9 04:12:33 68° ENE 04:12:33 68° ENE 04:16:12 10° NNE
SL-16 R/B 3.1 04:15:37 36° W 04:15:37 36° W 04:20:46 10° NNW
Cosmos 1125 Rocket 4.4 04:10:56 10° NNW 04:14:14 32° WNW 04:14:14 32° WNW
BREEZE M DEB (TANK) 4.3 04:17:34 21° NE 04:17:34 21° NE 04:19:02 10° E
Sich 1 2.9 04:12:53 10° N 04:17:17 88° W 04:17:46 71° S
Resurs 1-4 Rocket 3.0 04:14:48 10° N 04:19:24 31° WNW 04:19:26 31° WNW
Cosmos 2123 Rocket 4.4 04:14:43 10° NNW 04:20:29 40° W 04:20:53 40° W
CZ-2D R/B 3.5 04:17:35 10° N 04:21:16 60° NW 04:21:16 60° NW
Cosmos 1656 Rocket 4.3 04:19:42 10° NW 04:24:03 36° W 04:24:03 36° W
Cosmos 1315 Rocket 2.6 04:24:30 10° NNW 04:28:31 70° W 04:28:33 70° WSW
Cosmos 1459 Rocket 4.0 04:25:34 23° S 04:29:36 81° E 04:35:41 10° N
CZ-2D R/B 3.2 04:25:29 10° NNW 04:29:52 26° WNW 04:30:15 26° WNW
Cosmos 1538 Rocket 4.0 04:30:39 39° SSW 04:32:42 84° WNW 04:38:07 10° NNE
Cosmos 2228 Rocket 3.2 04:31:12 34° S 04:33:08 77° E 04:37:35 10° N
Cosmos 1470 Rocket 4.2 04:29:03 10° N 04:33:18 53° E 04:37:30 10° SSE
USA 229 DEB 3.8 04:31:16 10° NW 04:38:17 56° WSW 04:45:24 10° SSE
USA 229 3.8 04:31:23 10° NW 04:38:23 57° WSW 04:45:31 10° SSE
Cosmos 2082 Rocket 3.4 04:34:30 10° S 04:39:33 38° ESE 04:44:42 10° NE
Cosmos 1515 Rocket 3.6 04:37:53 27° S 04:40:14 75° E 04:44:39 10° N
PSLV R/B 4.0 04:42:55 36° NW 04:43:45 46° N 04:46:54 10° E
USA 161 3.9 04:47:07 10° NNW 04:47:07 10° NNW 04:47:07 10° NNW
Cosmos 1633 Rocket 3.2 04:41:25 10° NNW 04:45:39 50° W 04:46:49 38° SW
Tiangong 2 2.0 04:46:42 35° SSE 04:46:58 35° SSE 04:49:57 10° E
PSLV R/B 4.2 04:44:12 10° NNE 04:48:20 69° ESE 04:51:13 19° S
Cosmos 2061 Rocket 4.0 04:43:46 17° S 04:48:57 81° W 04:55:24 10° N
ARIANE 5 R/B 4.1 04:48:00 10° NNW 04:51:38 19° WNW 04:52:31 18° WNW
Lacrosse 5 3.7 04:47:17 10° NNW 04:51:50 32° NE 04:56:22 10° ESE
OE (NEXTSAT) 4.3 04:51:24 49° SW 04:52:16 84° SSE 04:55:52 10° ENE
CZ-4B R/B 3.3 04:52:55 10° NNE 04:57:24 77° E 05:01:30 13° S
CZ-4B R/B 3.9 04:53:15 10° NNE 04:58:36 53° E 05:03:49 10° S
UNKNOWN OBJECT B 4.4 04:56:49 10° NNW 04:59:45 19° WNW 05:00:00 19° WNW
Cosmos 1680 Rocket 4.1 04:55:30 10° S 05:00:40 58° ESE 05:05:53 10° NNE
Cosmos 1726 4.0 05:03:54 16° WNW 05:03:54 16° WNW 05:05:57 10° NNW
PAYLOAD B 4.5 05:00:26 10° NNE 05:06:03 73° ESE 05:11:36 10° S
Cosmos 1328 Rocket 4.2 05:05:17 26° WSW 05:06:52 36° WNW 05:10:53 10° N
SL-27 R/B 4.3 05:08:12 16° WNW 05:08:16 16° WNW 05:10:27 10° NNW
Cosmos 2369 3.9 05:02:48 10° NNW 05:08:28 75° ENE 05:14:06 10° SSE
Cosmos 2016 Rocket 3.9 05:02:56 10° SSW 05:09:01 70° W 05:15:07 10° N
ADEOS II 2.1 05:05:07 10° N 05:10:19 62° WNW 05:14:51 13° SSW
Meteor 1-27 4.2 05:04:42 10° SSW 05:10:24 80° W 05:16:02 10° N
USA 234 4.0 05:05:12 10° NE 05:11:30 47° SE 05:17:45 10° SSW
Cosmos 1892 2.6 05:07:43 10° N 05:11:34 89° W 05:15:24 10° S
Landsat 4 4.4 05:07:56 10° SSE 05:11:34 56° ENE 05:15:16 10° N
NOSS 3-1 (C) 4.1 05:05:34 10° NW 05:13:17 70° WSW 05:21:42 10° SSE
Hubble Space Telescope 2.4 05:12:56 17° SSW 05:14:28 21° S 05:17:37 10° SE
Shenzhou-11 Module 1.9 05:14:51 28° WSW 05:16:19 89° N 05:19:24 10° ENE
Cosmos 1864 Rocket 4.5 05:10:09 10° S 05:16:26 88° W 05:22:42 10° N
In-Cosmos 22 Rocket 4.4 05:12:50 10° NNW 05:17:54 43° W 05:22:52 10° SSW
PSLV R/B 3.5 05:13:56 10° N 05:18:15 67° WNW 05:22:29 10° SSW
BREEZE-M DEB (TANK) 2.8 05:20:14 22° SW 05:20:31 23° SW 05:23:25 10° SSE
Cosmos 1725 Rocket 3.9 05:15:28 10° S 05:21:39 80° W 05:27:51 10° N
Cosmos 1656 3.9 05:17:24 10° NNW 05:23:07 76° ENE 05:28:48 10° SSE
Cosmos 1802 Rocket 4.4 05:17:49 12° SSW 05:23:10 44° WNW 05:29:09 10° N
Cosmos 1825 4.2 05:23:26 10° NNE 05:26:52 31° ENE 05:30:17 10° SE
Cosmos 1933 Rocket 4.0 05:23:16 10° NNW 05:27:26 40° W 05:31:35 10° SSW
COSMOS 2487 2.6 05:28:40 13° SSW 05:31:44 54° WNW 05:35:13 10° N
Okean-O 4.3 05:28:32 10° NNE 05:32:37 35° E 05:36:39 10° SSE
Abrixas 2.0 05:30:18 10° NW 05:32:55 90° NNE 05:35:32 10° SE
Okean O Rocket 2.0 05:32:02 10° N 05:36:17 47° WNW 05:40:29 10° SW
Cosmos 1833 Rocket 2.7 05:32:58 10° SSW 05:38:34 67° WNW 05:44:12 10° NNE
Cosmos 1151 Rocket 4.1 05:38:20 11° SW 05:41:45 26° WNW 05:45:22 10° NNW
Cosmos 1408 3.4 05:39:44 10° N 05:43:18 55° E 05:46:50 10° SSE
Cosmos 1707 Rocket 3.8 05:40:07 10° S 05:44:31 78° E 05:48:56 10° N
Tsikada Rocket 4.1 05:38:34 10° NNW 05:44:48 65° W 05:51:05 10° S
Cosmos 1980 Rocket 3.1 05:49:11 10° NNW 05:54:41 55° ENE 06:00:10 10° SE
Cosmos 2278 4.1 05:52:52 10° NW 05:58:09 41° WSW 06:03:23 10° S
ASTEX 1 4.1 05:56:29 10° NNE 06:01:20 60° E 06:06:09 10° S
